SL-16 DEB, 39708

Orbit data source: Space-Track

SL-16 DEB, 39708 is space debris in LEO originally from a launch on Fri, 25 Dec 1992 UTC launched from the Tyuratam Missile And Space Complex (TTMTR). Debris objects in space refer to the collection of defunct objects orbiting the Earth. Examples of debris include non-operational satellites, rocket bodies, and fragments generated from explosions, collisions, or faulty payload assembly.

Loading next visibility...
Identifier
39708, 1992-093JY
Orbit
LEO
Country
Flag of CISCIS
Related business
Manufacturer
Unknown
Mission
Spacecraft
Bus & Motor
Unknown
Mass
Unknown
Launch date (UTC)
1992-12-25 (33 years ago)
Launch vehicle
Unknown
Launch site
Tyuratam Missile And Space Complex (TTMTR)
Object type
Payload
Rocket body
Debris
Shape & HBR
Unknown shape, 0.1 m
Radar Cross Section
Small (<0.1 m²)

Expand to show TLE details & history
Last TLE update: 2 weeks ago

TLE from 2 weeks ago
0 SL-16 DEB
1 39708U 92093JY  26120.34742075  .00014328  00000-0  89086-3 0  9995
2 39708  71.2785   0.3404 0039682  52.4804  66.3836 15.09050174649150
Epoch: 2026-04-30T08:20Z
TLE epoch observation values (Epoch: 2026-04-30T08:20:17.152Z)
Latitude
55.814°
Longitude
167.22475°
Altitude
536.973 km
Speed
7.606 km/s
True Right ascension
10h 02m 21s
True Declination
55° 38' 56"
Sunlit
Object was in daylight at epoch
Visualization orbit readout
Latitude
Unknown
Longitude
Unknown
Altitude
Unknown
Speed
Unknown
Apparent Right ascension
Unknown
Apparent Declination
Unknown
Sunlit
N/A
Visualization observer readout
Local Sidereal Time
20:27:04
Azimuth
Unknown
Elevation
Unknown
Doppler factor
Unknown
Orbital elements
Apogee altitude
564.346 km
Perigee altitude
509.466 km
Semi-major axis
6,915.043 km
Eccentricity
0.00397
Inclination
71.2785°
RAAN
0.3404°
Arg. of periapsis
52.4804°
True anomaly
66.80106°
Mean anomaly
66.3836°
Eccentric anomaly
66.59225°
Mean motion
3.77443 °/min
Orbital period
95.38 mins
BSTAR
0.00089086
Loading maneuver chart data...
Computing Atmospheric mass density...
Loading historical data...
Loading historical data...
Loading historical data...
Loading historical data...
Loading historical data...
Loading historical data...
Loading historical data...

Documentation

Showing up to 5 results
|